sat.trackr.live / text

‹ back to catalog

FLOCK 4Q-26

NORAD 58284 · 2023-174AE

PAYLOAD ACTIVE UNKNOWN

§ Identity

Operator
Country
US
Launch date
2023-11-11
Launch site
AFWTR
Launch vehicle
Mass (kg)
RCS (m²)

Purposes: earth_obs

External: N2YO · Heavens-Above · Gunter

§ Orbital elements

Epoch: 2026-06-20T05:23:08.458080Z

Period
92.43 min
Inclination
97.3873°
Eccentricity
0.0006699
Mean motion
15.57953137 rev/d
Perigee alt
389.0 km
Apogee alt
398.1 km
Semi-major
6,771.7 km
B*
4.1856e-4
RAAN
263.8154°
Arg perigee
143.3290°
Mean anomaly
216.8425°
Rev number
14,630

§ Raw data

FLOCK 4Q-261 58284U 23174AE  26171.22440345  .00031292  00000+0  41856-3 0  99982 58284  97.3873 263.8154 0006699 143.3290 216.8425 15.57953137146305

JSON: /api/v1/satellites/58284 · /tle

For live sub-satellite position, see the globe view (requires WebGL).

§ Visibility from observer

Set your observer location to see the next 7 days of passes ≥ 10°. The values pass through the URL so the page stays shareable.

No JS? Fill the form by hand. The geolocation button needs JavaScript.